| time (UTC) | temp C | wind direction | speed KPH | gust KPH | rain 1hr cm | rain 24hr cm | rain mn cm | humidity % | barometer mb |
| 20260502162041 | 18 | 164 | 0.0 | 4.8 | 0.00 | 0.00 | 0.00 | 22 | 1020.6 |
| 20260502161015 | 18 | 36 | 0.0 | 0.0 | 0.00 | 0.00 | 0.00 | 27 | 1020.4 |
| 20260502152015 | 16 | 24 | 0.0 | 0.0 | 0.00 | 0.00 | 0.00 | 29 | 1020.6 |
| 20260502151026 | 15 | 117 | 0.0 | 4.8 | 0.00 | 0.00 | 0.00 | 29 | 1020.6 |
| 20260502123036 | 10 | 135 | 0.0 | 6.4 | 0.00 | 0.00 | 0.00 | 38 | 1019.9 |
| 20260502122025 | 10 | 126 | 1.6 | 6.4 | 0.00 | 0.00 | 0.00 | 37 | 1019.9 |
| 20260502121037 | 10 | 131 | 1.6 | 8.0 | 0.00 | 0.00 | 0.00 | 38 | 1019.8 |
| 20260502115051 | 10 | 120 | 3.2 | 9.7 | 0.00 | 0.00 | 0.00 | 38 | 1019.9 |
| 20260502114021 | 10 | 122 | 1.6 | 6.4 | 0.00 | 0.00 | 0.00 | 39 | 1019.9 |
| 20260502113025 | 10 | 104 | 1.6 | 9.7 | 0.00 | 0.00 | 0.00 | 39 | 1020.0 |
| 20260502112017 | 10 | 122 | 1.6 | 4.8 | 0.00 | 0.00 | 0.00 | 39 | 1020.0 |
| 20260502111028 | 10 | 101 | 0.0 | 6.4 | 0.00 | 0.00 | 0.00 | 39 | 1020.1 |
| 20260502110012 | 10 | 109 | 1.6 | 6.4 | 0.00 | 0.00 | 0.00 | 39 | 1020.1 |
| 20260502105024 | 10 | 125 | 0.0 | 4.8 | 0.00 | 0.00 | 0.00 | 41 | 1020.1 |
| 20260502104036 | 10 | 114 | 0.0 | 0.0 | 0.00 | 0.00 | 0.00 | 42 | 1020.1 |
| 20260502103018 | 10 | 114 | 0.0 | 4.8 | 0.00 | 0.00 | 0.00 | 42 | 1020.1 |
| 20260502102051 | 10 | 110 | 1.6 | 9.7 | 0.00 | 0.00 | 0.00 | 43 | 1020.1 |
| 20260502101021 | 9 | 94 | 1.6 | 8.0 | 0.00 | 0.00 | 0.00 | 46 | 1020.0 |
| 20260502091012 | 10 | 130 | 0.0 | 1.6 | 0.00 | 0.00 | 0.00 | 45 | 1019.8 |
| 20260502071018 | 11 | 117 | 0.0 | 6.4 | 0.00 | 0.00 | 0.00 | 43 | 1019.6 |
| 20260502070030 | 11 | 189 | 0.0 | 0.0 | 0.00 | 0.00 | 0.00 | 45 | 1019.7 |
| 20260502065041 | 11 | 194 | 0.0 | 0.0 | 0.00 | 0.00 | 0.00 | 45 | 1019.7 |
| 20260502064024 | 11 | 112 | 0.0 | 0.0 | 0.00 | 0.00 | 0.00 | 44 | 1019.5 |
| 20260502063015 | 10 | 111 | 0.0 | 0.0 | 0.00 | 0.00 | 0.00 | 46 | 1019.7 |
| 20260502062026 | 10 | 109 | 0.0 | 0.0 | 0.00 | 0.00 | 0.00 | 46 | 1019.6 |
| 20260502061030 | 11 | 156 | 0.0 | 0.0 | 0.00 | 0.00 | 0.00 | 46 | 1019.6 |
| 20260502060022 | 11 | 154 | 0.0 | 0.0 | 0.00 | 0.00 | 0.00 | 46 | 1019.5 |
| 20260502055033 | 11 | 158 | 0.0 | 0.0 | 0.00 | 0.00 | 0.00 | 45 | 1019.5 |
| 20260502054018 | 11 | 158 | 0.0 | 0.0 | 0.00 | 0.00 | 0.00 | 45 | 1019.5 |
| 20260502053028 | 11 | 159 | 0.0 | 0.0 | 0.00 | 0.00 | 0.00 | 45 | 1019.5 |
| 20260502052100 | 12 | 160 | 0.0 | 0.0 | 0.00 | 0.00 | 0.00 | 45 | 1019.5 |
| 20260502051023 | 11 | 158 | 0.0 | 0.0 | 0.00 | 0.00 | 0.00 | 45 | 1019.4 |
| 20260502050014 | 12 | 164 | 0.0 | 0.0 | 0.00 | 0.00 | 0.00 | 45 | 1019.4 |
| 20260502045019 | 12 | 164 | 0.0 | 0.0 | 0.00 | 0.00 | 0.00 | 45 | 1019.4 |
| 20260502044029 | 12 | 164 | 0.0 | 0.0 | 0.00 | 0.00 | 0.00 | 45 | 1019.4 |
| 20260502043040 | 12 | 164 | 0.0 | 1.6 | 0.00 | 0.00 | 0.00 | 44 | 1019.3 |
| 20260502042031 | 12 | 213 | 0.0 | 0.0 | 0.00 | 0.00 | 0.00 | 46 | 1019.2 |
| 20260502041035 | 12 | 265 | 0.0 | 0.0 | 0.00 | 0.00 | 0.00 | 46 | 1019.2 |
| 20260502040025 | 12 | 264 | 0.0 | 0.0 | 0.00 | 0.00 | 0.00 | 45 | 1019.1 |
| 20260502035016 | 13 | 265 | 0.0 | 0.0 | 0.00 | 0.00 | 0.00 | 42 | 1019.0 |
| 20260502034027 | 13 | 266 | 0.0 | 0.0 | 0.00 | 0.00 | 0.00 | 43 | 1018.9 |
| 20260502033038 | 13 | 268 | 0.0 | 0.0 | 0.00 | 0.00 | 0.00 | 41 | 1018.9 |
| 20260502032022 | 14 | 268 | 0.0 | 0.0 | 0.00 | 0.00 | 0.00 | 42 | 1018.8 |
| 20260502031034 | 14 | 268 | 0.0 | 0.0 | 0.00 | 0.00 | 0.00 | 40 | 1018.6 |
| 20260502030018 | 15 | 269 | 0.0 | 0.0 | 0.00 | 0.00 | 0.00 | 40 | 1018.4 |
| 20260502025030 | 15 | 271 | 0.0 | 0.0 | 0.00 | 0.00 | 0.00 | 41 | 1018.3 |
| 20260502024014 | 15 | 270 | 0.0 | 0.0 | 0.00 | 0.00 | 0.00 | 41 | 1018.3 |
| 20260502023026 | 15 | 271 | 0.0 | 0.0 | 0.00 | 0.00 | 0.00 | 40 | 1018.2 |
| 20260502022038 | 16 | 272 | 0.0 | 1.6 | 0.00 | 0.00 | 0.00 | 39 | 1018.1 |
| 20260502021029 | 16 | 268 | 0.0 | 1.6 | 0.00 | 0.00 | 0.00 | 38 | 1018.1 |
| 20260502020033 | 17 | 359 | 0.0 | 4.8 | 0.00 | 0.00 | 0.00 | 36 | 1018.0 |
| 20260502015024 | 17 | 272 | 0.0 | 6.4 | 0.00 | 0.00 | 0.00 | 35 | 1017.9 |
| 20260502014029 | 17 | 263 | 3.2 | 9.7 | 0.00 | 0.00 | 0.00 | 34 | 1017.8 |
| 20260502013020 | 18 | 224 | 1.6 | 11.3 | 0.00 | 0.00 | 0.00 | 33 | 1017.8 |
| 20260502012031 | 18 | 278 | 0.0 | 9.7 | 0.00 | 0.00 | 0.00 | 26 | 1017.8 |
| 20260502011036 | 19 | 306 | 0.0 | 3.2 | 0.00 | 0.00 | 0.00 | 22 | 1017.7 |
| 20260502010026 | 19 | 295 | 0.0 | 3.2 | 0.00 | 0.00 | 0.00 | 22 | 1017.8 |
| 20260502005038 | 19 | 303 | 0.0 | 0.0 | 0.00 | 0.00 | 0.00 | 23 | 1017.8 |
| 20260502004027 | 19 | 304 | 1.6 | 9.7 | 0.00 | 0.00 | 0.00 | 22 | 1017.7 |
| 20260502003032 | 19 | 354 | 1.6 | 9.7 | 0.00 | 0.00 | 0.00 | 22 | 1017.9 |
| 20260502002023 | 19 | 300 | 1.6 | 8.0 | 0.00 | 0.00 | 0.00 | 22 | 1017.9 |
| 20260502001034 | 20 | 359 | 0.0 | 4.8 | 0.00 | 0.00 | 0.00 | 21 | 1017.9 |
| 20260502000019 | 20 | 290 | 0.0 | 4.8 | 0.00 | 0.00 | 0.00 | 23 | 1017.9 |
| 20260501235031 | 19 | 301 | 1.6 | 6.4 | 0.00 | 0.00 | 0.00 | 22 | 1018.0 |
| 20260501234019 | 19 | 359 | 0.0 | 8.0 | 0.00 | 0.00 | 0.00 | 24 | 1018.1 |
| 20260501233030 | 19 | 33 | 1.6 | 6.4 | 0.00 | 0.00 | 0.00 | 24 | 1018.1 |
| 20260501232015 | 19 | 23 | 3.2 | 8.0 | 0.00 | 0.00 | 0.00 | 24 | 1018.1 |
| 20260501231053 | 19 | 359 | 0.0 | 8.0 | 0.00 | 0.00 | 0.00 | 24 | 1018.2 |
| 20260501230035 | 19 | 347 | 3.2 | 9.7 | 0.00 | 0.00 | 0.00 | 24 | 1018.2 |
| 20260501225025 | 19 | 16 | 1.6 | 12.9 | 0.00 | 0.00 | 0.00 | 23 | 1018.4 |
| 20260501224035 | 18 | 33 | 1.6 | 16.1 | 0.00 | 0.00 | 0.00 | 24 | 1018.4 |
| 20260501223016 | 18 | 266 | 1.6 | 6.4 | 0.00 | 0.00 | 0.00 | 23 | 1018.6 |
| 20260501222027 | 18 | 359 | 0.0 | 11.3 | 0.00 | 0.00 | 0.00 | 24 | 1018.7 |
| 20260501221038 | 18 | 280 | 0.0 | 9.7 | 0.00 | 0.00 | 0.00 | 23 | 1018.8 |
| 20260501220049 | 19 | 335 | 1.6 | 8.0 | 0.00 | 0.00 | 0.00 | 24 | 1018.9 |
| 20260501215030 | 19 | 348 | 0.0 | 6.4 | 0.00 | 0.00 | 0.00 | 22 | 1018.9 |
| 20260501214022 | 18 | 21 | 0.0 | 6.4 | 0.00 | 0.00 | 0.00 | 23 | 1019.0 |
| 20260501213034 | 18 | 359 | 0.0 | 9.7 | 0.00 | 0.00 | 0.00 | 23 | 1019.0 |
| 20260501212017 | 18 | 297 | 3.2 | 9.7 | 0.00 | 0.00 | 0.00 | 23 | 1019.2 |
| 20260501211027 | 18 | 330 | 0.0 | 12.9 | 0.00 | 0.00 | 0.00 | 24 | 1019.2 |
| 20260501210032 | 18 | 21 | 0.0 | 9.7 | 0.00 | 0.00 | 0.00 | 24 | 1019.3 |
| 20260501205023 | 18 | 310 | 1.6 | 6.4 | 0.00 | 0.00 | 0.00 | 25 | 1019.2 |
| 20260501204034 | 18 | 359 | 8.0 | 14.5 | 0.00 | 0.00 | 0.00 | 24 | 1019.3 |
| 20260501203018 | 18 | 27 | 3.2 | 9.7 | 0.00 | 0.00 | 0.00 | 23 | 1019.2 |
| 20260501202029 | 18 | 271 | 1.6 | 8.0 | 0.00 | 0.00 | 0.00 | 19 | 1019.3 |
| 20260501201014 | 18 | 195 | 0.0 | 6.4 | 0.00 | 0.00 | 0.00 | 18 | 1019.2 |
| 20260501200025 | 18 | 21 | 1.6 | 9.7 | 0.00 | 0.00 | 0.00 | 19 | 1019.3 |
| 20260501195036 | 18 | 4 | 0.0 | 17.7 | 0.00 | 0.00 | 0.00 | 19 | 1019.4 |
| 20260501194020 | 18 | 359 | 3.2 | 11.3 | 0.00 | 0.00 | 0.00 | 19 | 1019.5 |
| 20260501193032 | 18 | 116 | 0.0 | 1.6 | 0.00 | 0.00 | 0.00 | 20 | 1019.6 |
| 20260501192015 | 18 | 202 | 1.6 | 8.0 | 0.00 | 0.00 | 0.00 | 18 | 1019.7 |
| 20260501191047 | 17 | 245 | 0.0 | 8.0 | 0.00 | 0.00 | 0.00 | 17 | 1019.7 |
| 20260501190018 | 17 | 18 | 0.0 | 6.4 | 0.00 | 0.00 | 0.00 | 21 | 1019.8 |
| 20260501185029 | 17 | 168 | 0.0 | 9.7 | 0.00 | 0.00 | 0.00 | 19 | 1019.9 |
| 20260501184034 | 17 | 200 | 0.0 | 3.2 | 0.00 | 0.00 | 0.00 | 18 | 1020.0 |
| 20260501183025 | 16 | 292 | 0.0 | 14.5 | 0.00 | 0.00 | 0.00 | 19 | 1020.1 |
| 20260501182017 | 17 | 191 | 0.0 | 12.9 | 0.00 | 0.00 | 0.00 | 18 | 1020.3 |
| 20260501181047 | 16 | 162 | 0.0 | 8.0 | 0.00 | 0.00 | 0.00 | 20 | 1020.3 |
| 20260501180058 | 16 | 147 | 3.2 | 20.9 | 0.00 | 0.00 | 0.00 | 20 | 1020.4 |
| 20260501175021 | 16 | 77 | 0.0 | 16.1 | 0.00 | 0.00 | 0.00 | 22 | 1020.5 |
| 20260501174012 | 16 | 181 | 4.8 | 16.1 | 0.00 | 0.00 | 0.00 | 21 | 1020.6 |
| 20260501173017 | 16 | 34 | 1.6 | 11.3 | 0.00 | 0.00 | 0.00 | 23 | 1020.5 |
| 20260501172028 | 16 | 20 | 0.0 | 9.7 | 0.00 | 0.00 | 0.00 | 27 | 1020.6 |
| 20260501171013 | 16 | 156 | 1.6 | 14.5 | 0.00 | 0.00 | 0.00 | 23 | 1020.8 |
| 20260501170023 | 16 | 50 | 0.0 | 12.9 | 0.00 | 0.00 | 0.00 | 27 | 1020.7 |
| 20260501165014 | 15 | 156 | 0.0 | 19.3 | 0.00 | 0.00 | 0.00 | 24 | 1020.7 |
| 20260501164046 | 15 | 99 | 1.6 | 14.5 | 0.00 | 0.00 | 0.00 | 26 | 1020.8 |
| 20260501163037 | 15 | 104 | 9.7 | 17.7 | 0.00 | 0.00 | 0.00 | 25 | 1020.9 |